Location: ???? ???? ?????
(31.2680°N, 31.7283°E)
Time: 19:31:30
(UTC+00:00)

COSMOS 2455 - Pass Details

Date: 13 July 2020
Orbit: 898 x 911 km, 67.1° (Epoch: 05 August)

Event Time Altitude Azimuth Distance (km) Brightness Sun altitude
Rises 20:33:40 0° 339° (NNW) 3,545 7.0 -33.3°
Reaches altitude 10° 20:36:14 10° 344° (NNW) 2,600 6.1 -33.5°
Enters shadow 20:40:48 47° 16° (NNE) 1,185 3.6 -33.9°
